User: anonymous   Login
Location: Unspecified
(0.0000°N, 0.0000°E)
Time: 17:30:09
(UTC+00:00)
Language:

COSMOS 2390 - Orbit

View from above orbital plane
View from above orbital plane
View from above satellite
View from above satellite

Ground track
Ground track

The orbit data is extracted from the following two-line orbital elements,

1 27464U 02036A   18049.71725357 +.00000042 +00000-0 +22703-3 0  9996
2 27464 082.4821 085.9632 0026390 069.3708 291.0195 12.44566517709594
Epoch (UTC): 18 February 2018 17:12:50
Eccentricity: 0.0026390
inclination: 82.4821°
perigee height: 1466 km
apogee height: 1508 km
right ascension of ascending node: 85.9632°
argument of perigee: 69.3708°
revolutions per day: 12.44566517
mean anomaly at epoch: 291.0195°
orbit number at epoch: 70959

The dashed part of the orbit path shows where the satellite is in the earth's shadow,  

DLR